Other Public Products
Issued by NWS Grand Forks, ND

Home | Current Version | Previous Version | Text Only | Print | Product List | Glossary Off
Versions: 1 2 3 4 5 6 7 8 9 10 11 12 13 14 15 16 17 18 19 20 21 22 23 24 25 26 27 28 29 30 31 32 33 34 35 36 37 38 39 40 41 42 43 44 45 46 47 48 49 50

000
FPUS83 KFGF 210131
OPUFGF
PRAIRIE TO PINES WEATHER ROUNDUP
NATIONAL WEATHER SERVICE EASTERN NORTH DAKOTA/GRAND FORKS ND
700 PM CST MON NOV 20 2017

 **SATELLITE DATA USED TO AUGMENT SKY COVER AT AUTOMATED STATIONS**
 *****  WEATHER ACROSS EASTERN NORTH DAKOTA  *****

CITY           SKY/WX    TMP DP  RH WIND       PRES   REMARKS
GRAND FORKS    FAIR      35  29  78 NW30G45   29.44R WCI  22
GRND FORKS AFB FAIR      35  27  73 NW24G33   29.46R WCI  22
GRND FORKS NWS NOT AVBL
BUXTON           N/A     36  30  79 W21         N/A
DEVILS LAKE    FAIR      26  21  81 W33       29.51R WCI   9
FARGO          FAIR      40  30  67 W22G35    29.49R
WAHPETON ARPT  NOT AVBL
$$

 *****  WEATHER ACROSS CENTRAL AND WESTERN NORTH DAKOTA  *****

CITY           SKY/WX    TMP DP  RH WIND       PRES   REMARKS
JAMESTOWN      FAIR      35  23  61 NW28G39   29.55R WCI  22
BISMARCK       FAIR      38  27  64 NW12      29.67R
MINOT          FAIR      25  17  72 W21G33    29.65R WCI  11
MINOT AFB      FAIR      23  16  75 NW21G38   29.63R WCI   8
GARRISON         N/A     29  18  63 NW18      29.66R WCI  16
WILLISTON      CLOUDY    28  13  53 NW20G28   29.77R WCI  15
DICKINSON      MOCLDY    33  20  58 W10       29.68R WCI  25
HETTINGER      CLOUDY    37  23  56 NW17      29.72R
$$

 *****  OTHER OBSERVATIONS NORTHEAST NORTH DAKOTA  *****

CITY           SKY/WX    TMP DP  RH WIND       PRES   REMARKS
WALHALLA       FAIR      25  18  74 NW25G36   29.46R WCI   9
LANGDON        CLOUDY    23  16  74 NW43G51   29.46R WCI   3
CAVALIER       FAIR      27  18  69 NW28G39   29.46R WCI  11
GRAFTON        FAIR      28  21  74 NW26G44   29.49R WCI  13
CANDO          FAIR      23  14  68 NW25G37   29.56R WCI   7
FORT TOTTEN      N/A     27  20  73 NW15      29.95S WCI  15
ROLLA          FLURRIES  19  12  73 NW36G51   29.51R WCI  -1
RUGBY          MOCLDY    23  18  80 NW22G33   29.58R WCI   8
 ***** THE ABOVE OBSERVATIONS ARE NON NWS ARE NOT QUALITY
        CONTROLLED AND MAY MIS-REPORT RAIN FOR SNOW...
$$

 *****  OTHER OBSERVATIONS SOUTHEAST NORTH DAKOTA *****

CITY           SKY/WX    TMP DP  RH WIND       PRES   REMARKS
COOPERSTOWN    FAIR      32  23  69 W36G43    29.52R WCI  16
VALLEY CITY    FLURRIES  34  21  60 NW29G38   29.56R WCI  20
OAKES            N/A     39  27  60 NW22G31   29.58R
GWINNER          N/A     39  25  56 NW24G40   29.57R
SHEYENNE NWR     N/A     42  29  59 NW15      29.95S
BUFFALO          N/A     35  26  68 SW25        N/A  WCI  23
WYNDMERE       NOT AVBL
 ***** THE ABOVE OBSERVATIONS ARE NON NWS ARE NOT QUALITY
       CONTROLLED AND MAY MIS-REPORT RAIN FOR SNOW...
$$

  *****  WEATHER ACROSS NORTHERN MINNESOTA  *****

CITY           SKY/WX    TMP DP  RH WIND       PRES   REMARKS
FLAG ISLAND    CLOUDY    34  27  75 W30G37    29.20R WCI  20
WARROAD        CLOUDY    34  27  75 W30G44    29.27R WCI  20
ROSEAU         CLOUDY    32  27  80 NW21G36   29.30R WCI  20
HALLOCK        CLOUDY    30  21  69 NW33G45   29.42R WCI  14
THF RVR FALLS  CLOUDY    35  30  82 NW24G33   29.37R WCI  23
HALSTAD          N/A     37  27  66 NW28        N/A
FOSSTON        CLOUDY    36  27  69 W35G44    29.40R
BAUDETTE       CLOUDY    38  30  73 W17G33    29.20R
WASKISH        CLOUDY    37  30  75 W20G26    29.26S
CROOKSTON      FAIR      36  27  69 NW30G45   29.45R
$$
  *****  WEATHER ACROSS CENTRAL AND WEST MINNESOTA  *****

CITY           SKY/WX    TMP DP  RH WIND       PRES   REMARKS
BEMIDJI        CLOUDY    38  30  72 W30G39    29.33R
PARK RAPIDS    FAIR      42  29  59 NW33G55   29.35R
WADENA         FAIR      43  28  56 W15G36    29.40R
DETROIT LAKES  FAIR      39  32  75 W25G40    29.44R
MOORHEAD       FAIR      39  28  65 W28G35    29.50R
FERGUS FALLS   FAIR      43  30  61 NW31G39   29.50R
ELBOW LAKE     FAIR      42  28  58 NW17G25   29.49R
MORRIS MN      FAIR      45  27  49 NW18G24   29.49R
STAPLES        FAIR      39  25  56 W13       29.39R
WHEATON        FAIR      46  27  46 W16G23    29.54R
$$
  *****  WEATHER ELSEWHERE ACROSS MINNESOTA  *****

CITY           SKY/WX    TMP DP  RH WIND       PRES   REMARKS
DULUTH         FAIR      34  27  75 W17       29.30F WCI  23
INTRNTL FALLS  CLOUDY    40  26  57 SW15G21   29.19S
ELY            FAIR      36  27  69 SW12      29.22F
CLOQUET        FAIR      36  27  69 SW10      29.32R
BRAINERD       MOCLDY    37  28  70 SW10      29.37R
HIBBING        FAIR      34  27  75 S5        29.27F
ALEXANDRIA     FAIR      44  25  47 W17       29.46R
SAINT CLOUD    FAIR      35  28  75 SW8       29.42S
MINNEAPOLIS    MOCLDY    45  29  53 SW8       29.46R
$$

  *****  WEATHER ACROSS SOUTH DAKOTA  *****

CITY           SKY/WX    TMP DP  RH WIND       PRES   REMARKS
SIOUX FALLS    FAIR      43  27  53 W5        29.58R
BROOKINGS      FAIR      39  24  55 W6        29.57R
WATERTOWN      FAIR      46  22  38 W14       29.54R
HURON          FAIR      34  20  56 NW9       29.60R
SISSETON         N/A     47  27  45 NW25G32   29.53R
ABERDEEN       FAIR      46  26  45 N21       29.61R
MITCHELL       FAIR      44  24  45 NW9       29.61R
PIERRE         FAIR      48  25  40 NW13      29.65R
MOBRIDGE       FAIR      45  27  49 N15       29.61R
RAPID CITY     FAIR      44  22  41 VRB5      29.73R
$$

  *****  SOME WEATHER IN NEARBY STATES *****

CITY           SKY/WX    TMP DP  RH WIND       PRES   REMARKS
GLASGOW MT     CLOUDY    30  18  60 N18       29.84R WCI  18
GREAT FALLS MT LGT SNOW  28  24  85 E10       29.86R FOG     WCI  19
CHEYENNE WY    FAIR      50  10  20 S7        29.87S
SCOTTSBLUFF NE FAIR      51  17  26 NW9       29.79S
OMAHA NE       MOCLDY    45  29  53 SE7       29.65R
DES MOINES IA  CLOUDY    54  29  38 SW13      29.65R
DAVENPORT IA   FAIR      51  31  46 S14       29.71F
CHICAGO IL     MOCLDY    48  32  53 S20G32    29.73S
EAU CLAIRE WI  FAIR      45  30  55 SW10      29.44R
LA CROSSE WI   FAIR      51  32  48 S15       29.50F
$$

  *****  SOME NATIONAL WEATHER *****

CITY           SKY/WX    TMP DP  RH WIND       PRES   REMARKS
LA GUARDIA NY  FAIR      45  23  42 SW16G22   30.11R
RALEIGH NC     MOCLDY    40  30  67 CALM      30.23S
ATLANTA GA     MOCLDY    50  37  61 SE3       30.17R
NEW ORLEANS LA MOCLDY    54  46  74 CALM      30.14R
OKLAHOMA CITY  FAIR      52  29  41 S15       29.87F
ALBUQUERQUE NM MOCLDY    53  -1  11 W3        30.08R
SALT LAKE CITY CLOUDY    45  36  70 SE5       30.09S
LOS ANGELES CA FAIR      69  33  26 CALM      29.99S
BOISE ID       LGT RAIN  47  41  80 SE13      29.97R
SEATTLE WA     MOCLDY    47  37  68 SW5       29.96R
$$

*** WEATHER ACROSS MANITOBA...SASKATCHEWAN AND ONTARIO ***
                ***ONTARIO***

CITY           SKY/WX    TMP DP  RH WIND       PRES   REMARKS
GERALDTON      LGT SNOW  28  27  93 SE8       29.25F WCI  20
THUNDER BAY    CLOUDY    34  32  93 SE6       29.23F
SIOUX LOOKOUT  LGT SNOW  30  30 100 SW5       29.07F
TORONTO        PTCLDY    39  32  75 SW8       29.85F
BIG TROUT LK   PTCLDY     3   0  85 N5        29.45S WCI  -6
PICKLE LAKE    LGT SNOW  14  12  92 NE12      29.19F VSB 3/4 WCI   0
DRYDEN         LGT SNOW  32  32 100 SW15G21   29.08F WCI  22
KENORA         LGT SNOW  32  30  93 W12G25    29.13S WCI  23
$$
                *** MANITOBA***

CITY           SKY/WX    TMP DP  RH WIND       PRES   REMARKS
BRANDON        PTCLDY    19  10  68 NW31G45   29.54R WCI   0
DAUPHIN        LGT SNOW  18  14  86 NW18G25   29.57R VSB 1   WCI   2
ISLAND LAKE    FLURRIES   9   3  78 NE10G17   29.51R WCI  -6
PILOT MOUND      N/A     21  14  73 NW35G44     N/A  WCI   2
THE PAS        FLURRIES   9   3  78 N10G17    29.74R WCI  -6
THOMPSON       MOCLDY     5   1  85 NW7       29.69R WCI  -7
WINNIPEG       FLURRIES  21  16  79 NW36G47   29.38R WCI   2
LYNN LAKE      FLURRIES   7   5  92 NW7       29.77R WCI  -5
CHURCHILL      LGT SNOW  16  16 100 NW24G30   29.56S DRFTSNOWWCI  -3
GILLAM         FLURRIES  10   9  92 NW10      29.60S WCI  -3
$$
                ***SASKATCHEWAN***

CITY           SKY/WX    TMP DP  RH WIND       PRES   REMARKS
ESTEVAN        FLURRIES  10   3  72 NW32G39   29.76R WCI -12
KINDERSLEY     PTCLDY     1  -6  71 NW18G26   29.95R WCI -19
LLOYDMINSTER   FLURRIES  -2  -8  78 NW14G20   29.98R WCI -21
PRINCE ALBERT  MOCLDY     7  -2  66 NW9       29.90R WCI  -7
REGINA         MOCLDY     7   1  78 NW25G39   29.83R WCI -15
YORKTON        LGT SNOW  14   9  79 NW22G33   29.69R WC



USA.gov is the U.S. government's official web portal to all federal, state and local government web resources and services.